| time (UTC) | temp F | wind direction | speed MPH | gust MPH | rain 1hr in | rain 24hr in | rain mn in | humidity % | barometer mb |
| 20260905172144 | 95 | 46 | 4.0 | 9.0 | 0.00 | 0.00 | 0.00 | 32 | 1015.6 |
| 20260905171122 | 95 | 45 | 4.0 | 8.0 | 0.00 | 0.00 | 0.00 | 32 | 1015.7 |
| 20260905170145 | 93 | 249 | 2.0 | 5.0 | 0.00 | 0.00 | 0.00 | 33 | 1015.8 |
| 20260905165122 | 93 | 336 | 2.0 | 6.0 | 0.00 | 0.00 | 0.00 | 33 | 1015.8 |
| 20260905164144 | 93 | 312 | 3.0 | 4.0 | 0.00 | 0.00 | 0.00 | 33 | 1015.7 |
| 20260905163122 | 93 | 272 | 3.0 | 6.0 | 0.00 | 0.00 | 0.00 | 35 | 1015.8 |
| 20260905162123 | 92 | 343 | 3.0 | 8.0 | 0.00 | 0.00 | 0.00 | 35 | 1015.8 |
| 20260905161144 | 91 | 280 | 4.0 | 6.0 | 0.00 | 0.00 | 0.00 | 36 | 1015.7 |
| 20260905160122 | 91 | 105 | 4.0 | 7.0 | 0.00 | 0.00 | 0.00 | 37 | 1015.6 |
| 20260905155122 | 89 | 359 | 3.0 | 6.0 | 0.00 | 0.00 | 0.00 | 38 | 1015.5 |
| 20260905154123 | 89 | 153 | 3.0 | 5.0 | 0.00 | 0.00 | 0.00 | 39 | 1015.5 |
| 20260905153123 | 88 | 169 | 3.0 | 5.0 | 0.00 | 0.00 | 0.00 | 39 | 1015.4 |
| 20260905152123 | 89 | 101 | 2.0 | 4.0 | 0.00 | 0.00 | 0.00 | 39 | 1015.3 |
| 20260905151123 | 89 | 44 | 3.0 | 4.0 | 0.00 | 0.00 | 0.00 | 40 | 1015.3 |
| 20260905150143 | 87 | 44 | 2.0 | 4.0 | 0.00 | 0.00 | 0.00 | 43 | 1015.4 |
| 20260905145124 | 86 | 44 | 1.0 | 3.0 | 0.00 | 0.00 | 0.00 | 44 | 1015.3 |
| 20260905144122 | 85 | 44 | 2.0 | 4.0 | 0.00 | 0.00 | 0.00 | 45 | 1015.4 |
| 20260905143123 | 84 | 43 | 2.0 | 3.0 | 0.00 | 0.00 | 0.00 | 45 | 1015.3 |
| 20260905142122 | 84 | 48 | 2.0 | 2.0 | 0.00 | 0.00 | 0.00 | 46 | 1015.3 |
| 20260905141124 | 84 | 49 | 1.0 | 3.0 | 0.00 | 0.00 | 0.00 | 46 | 1015.1 |
| 20260905140144 | 83 | 41 | 2.0 | 3.0 | 0.00 | 0.00 | 0.00 | 47 | 1015.1 |
| 20260905135123 | 82 | 46 | 1.0 | 2.0 | 0.00 | 0.00 | 0.00 | 47 | 1015.0 |
| 20260905134122 | 81 | 37 | 1.0 | 3.0 | 0.00 | 0.00 | 0.00 | 49 | 1014.9 |
| 20260905133124 | 80 | 44 | 2.0 | 4.0 | 0.00 | 0.00 | 0.00 | 51 | 1014.6 |
| 20260905132123 | 79 | 42 | 3.0 | 4.0 | 0.00 | 0.00 | 0.00 | 52 | 1014.5 |
| 20260905131122 | 79 | 9 | 3.0 | 4.0 | 0.00 | 0.00 | 0.00 | 52 | 1014.3 |
| 20260905130122 | 79 | 346 | 2.0 | 3.0 | 0.00 | 0.00 | 0.00 | 53 | 1014.4 |
| 20260905125143 | 78 | 346 | 3.0 | 3.0 | 0.00 | 0.00 | 0.00 | 53 | 1014.3 |
| 20260905124149 | 78 | 346 | 2.0 | 3.0 | 0.00 | 0.00 | 0.00 | 52 | 1014.3 |
| 20260905124145 | 78 | 346 | 2.0 | 2.0 | 0.00 | 0.00 | 0.00 | 52 | 1014.3 |
| 20260905123123 | 79 | 346 | 2.0 | 3.0 | 0.00 | 0.00 | 0.00 | 51 | 1014.3 |
| 20260905122143 | 80 | 346 | 3.0 | 4.0 | 0.00 | 0.00 | 0.00 | 51 | 1014.2 |
| 20260905121122 | 81 | 323 | 2.0 | 3.0 | 0.00 | 0.00 | 0.00 | 49 | 1014.1 |
| 20260905120123 | 81 | 323 | 2.0 | 3.0 | 0.00 | 0.00 | 0.00 | 48 | 1014.1 |
| 20260905115122 | 82 | 335 | 1.0 | 3.0 | 0.00 | 0.00 | 0.00 | 47 | 1014.1 |
| 20260905114123 | 81 | 360 | 2.0 | 4.0 | 0.00 | 0.00 | 0.00 | 48 | 1014.0 |
| 20260905113145 | 82 | 326 | 3.0 | 4.0 | 0.00 | 0.00 | 0.00 | 47 | 1014.0 |
| 20260905112122 | 81 | 360 | 1.0 | 3.0 | 0.00 | 0.00 | 0.00 | 49 | 1013.9 |
| 20260905111122 | 81 | 360 | 1.0 | 2.0 | 0.00 | 0.00 | 0.00 | 48 | 1013.7 |
| 20260905110123 | 81 | 350 | 1.0 | 3.0 | 0.00 | 0.00 | 0.00 | 50 | 1013.6 |
| 20260905105124 | 81 | 360 | 0.0 | 0.0 | 0.00 | 0.00 | 0.00 | 49 | 1013.6 |
| 20260905104122 | 81 | 360 | 0.0 | 0.0 | 0.00 | 0.00 | 0.00 | 49 | 1013.5 |
| 20260905103122 | 81 | 360 | 0.0 | 0.0 | 0.00 | 0.00 | 0.00 | 48 | 1013.5 |
| 20260905102123 | 82 | 360 | 0.0 | 0.0 | 0.00 | 0.00 | 0.00 | 47 | 1013.6 |
| 20260905101143 | 82 | 298 | 0.0 | 0.0 | 0.00 | 0.00 | 0.00 | 46 | 1013.4 |
| 20260905100123 | 83 | 339 | 0.0 | 1.0 | 0.00 | 0.00 | 0.00 | 45 | 1013.4 |
| 20260905095122 | 83 | 360 | 1.0 | 2.0 | 0.00 | 0.00 | 0.00 | 44 | 1013.5 |
| 20260905094144 | 83 | 360 | 2.0 | 2.0 | 0.00 | 0.00 | 0.00 | 44 | 1013.6 |
| 20260905093123 | 84 | 360 | 2.0 | 2.0 | 0.00 | 0.00 | 0.00 | 44 | 1013.6 |
| 20260905092123 | 84 | 360 | 2.0 | 3.0 | 0.00 | 0.00 | 0.00 | 44 | 1013.5 |
| 20260905091122 | 84 | 334 | 2.0 | 3.0 | 0.00 | 0.00 | 0.00 | 43 | 1013.5 |
| 20260905090124 | 83 | 294 | 0.0 | 0.0 | 0.00 | 0.00 | 0.00 | 44 | 1013.5 |
| 20260905085122 | 84 | 295 | 1.0 | 2.0 | 0.00 | 0.00 | 0.00 | 42 | 1013.6 |
| 20260905084122 | 84 | 325 | 2.0 | 3.0 | 0.00 | 0.00 | 0.00 | 43 | 1013.6 |
| 20260905083122 | 83 | 360 | 0.0 | 0.0 | 0.00 | 0.00 | 0.00 | 44 | 1013.6 |
| 20260905082123 | 83 | 297 | 0.0 | 0.0 | 0.00 | 0.00 | 0.00 | 44 | 1013.5 |
| 20260905081122 | 84 | 297 | 0.0 | 0.0 | 0.00 | 0.00 | 0.00 | 44 | 1013.5 |
| 20260905080122 | 85 | 297 | 0.0 | 0.0 | 0.00 | 0.00 | 0.00 | 42 | 1013.6 |
| 20260905075122 | 85 | 296 | 1.0 | 2.0 | 0.00 | 0.00 | 0.00 | 40 | 1013.5 |
| 20260905074122 | 86 | 296 | 1.0 | 3.0 | 0.00 | 0.00 | 0.00 | 40 | 1013.5 |
| 20260905073122 | 86 | 310 | 2.0 | 3.0 | 0.00 | 0.00 | 0.00 | 40 | 1013.4 |
| 20260905072122 | 86 | 322 | 2.0 | 3.0 | 0.00 | 0.00 | 0.00 | 40 | 1013.4 |
| 20260905071123 | 87 | 303 | 2.0 | 5.0 | 0.00 | 0.00 | 0.00 | 40 | 1013.5 |
| 20260905070122 | 87 | 308 | 2.0 | 3.0 | 0.00 | 0.00 | 0.00 | 39 | 1013.4 |
| 20260905065122 | 87 | 345 | 2.0 | 5.0 | 0.00 | 0.00 | 0.00 | 39 | 1013.4 |
| 20260905064145 | 88 | 355 | 2.0 | 3.0 | 0.00 | 0.00 | 0.00 | 38 | 1013.4 |
| 20260905063143 | 88 | 360 | 2.0 | 3.0 | 0.00 | 0.00 | 0.00 | 38 | 1013.2 |
| 20260905062122 | 90 | 325 | 2.0 | 3.0 | 0.00 | 0.00 | 0.00 | 36 | 1013.2 |
| 20260905061123 | 91 | 309 | 3.0 | 5.0 | 0.00 | 0.00 | 0.00 | 35 | 1013.2 |
| 20260905060122 | 91 | 331 | 4.0 | 8.0 | 0.00 | 0.00 | 0.00 | 33 | 1013.1 |
| 20260905055122 | 92 | 325 | 5.0 | 9.0 | 0.00 | 0.00 | 0.00 | 33 | 1013.0 |
| 20260905054122 | 92 | 323 | 5.0 | 8.0 | 0.00 | 0.00 | 0.00 | 33 | 1013.0 |
| 20260905053143 | 92 | 327 | 4.0 | 8.0 | 0.00 | 0.00 | 0.00 | 32 | 1013.1 |
| 20260905052122 | 93 | 323 | 5.0 | 8.0 | 0.00 | 0.00 | 0.00 | 31 | 1013.1 |
| 20260905051122 | 93 | 331 | 5.0 | 9.0 | 0.00 | 0.00 | 0.00 | 31 | 1012.9 |
| 20260905050122 | 93 | 342 | 4.0 | 8.0 | 0.00 | 0.00 | 0.00 | 30 | 1012.8 |
| 20260905045143 | 94 | 332 | 4.0 | 8.0 | 0.00 | 0.00 | 0.00 | 30 | 1012.7 |
| 20260905044143 | 94 | 329 | 4.0 | 7.0 | 0.00 | 0.00 | 0.00 | 31 | 1012.7 |
| 20260905043122 | 93 | 330 | 5.0 | 9.0 | 0.00 | 0.00 | 0.00 | 34 | 1012.7 |
| 20260905042122 | 92 | 347 | 3.0 | 4.0 | 0.00 | 0.00 | 0.00 | 40 | 1012.7 |
| 20260905041123 | 92 | 260 | 1.0 | 2.0 | 0.00 | 0.00 | 0.00 | 38 | 1012.6 |
| 20260905040122 | 92 | 260 | 1.0 | 2.0 | 0.00 | 0.00 | 0.00 | 39 | 1012.5 |
| 20260905035122 | 92 | 260 | 1.0 | 2.0 | 0.00 | 0.00 | 0.00 | 37 | 1012.3 |
| 20260905034123 | 92 | 260 | 0.0 | 2.0 | 0.00 | 0.00 | 0.00 | 38 | 1012.3 |
| 20260905033123 | 92 | 299 | 2.0 | 2.0 | 0.00 | 0.00 | 0.00 | 38 | 1012.1 |
| 20260905032122 | 91 | 259 | 2.0 | 2.0 | 0.00 | 0.00 | 0.00 | 39 | 1012.0 |
| 20260905031122 | 92 | 259 | 2.0 | 3.0 | 0.00 | 0.00 | 0.00 | 38 | 1012.0 |
| 20260905030123 | 92 | 335 | 2.0 | 3.0 | 0.00 | 0.00 | 0.00 | 38 | 1011.8 |
| 20260905025122 | 92 | 262 | 2.0 | 3.0 | 0.00 | 0.00 | 0.00 | 38 | 1011.7 |
| 20260905024123 | 92 | 261 | 2.0 | 3.0 | 0.00 | 0.00 | 0.00 | 37 | 1011.6 |
| 20260905023123 | 93 | 257 | 2.0 | 3.0 | 0.00 | 0.00 | 0.00 | 36 | 1011.4 |
| 20260905022144 | 94 | 259 | 1.0 | 2.0 | 0.00 | 0.00 | 0.00 | 35 | 1011.4 |
| 20260905021124 | 95 | 259 | 1.0 | 2.0 | 0.00 | 0.00 | 0.00 | 33 | 1011.4 |
| 20260905020144 | 95 | 340 | 2.0 | 3.0 | 0.00 | 0.00 | 0.00 | 33 | 1011.3 |
| 20260905015124 | 96 | 273 | 2.0 | 4.0 | 0.00 | 0.05 | 0.00 | 32 | 1011.2 |
| 20260905014123 | 96 | 311 | 3.0 | 6.0 | 0.00 | 0.05 | 0.00 | 32 | 1011.2 |
| 20260905013123 | 96 | 344 | 3.0 | 7.0 | 0.00 | 0.05 | 0.00 | 31 | 1011.1 |
| 20260905012123 | 96 | 323 | 2.0 | 3.0 | 0.00 | 0.05 | 0.00 | 31 | 1011.1 |
| 20260905011123 | 97 | 313 | 2.0 | 8.0 | 0.00 | 0.05 | 0.00 | 30 | 1011.0 |
| 20260905010123 | 97 | 332 | 3.0 | 6.0 | 0.00 | 0.05 | 0.00 | 30 | 1011.0 |
| 20260905005123 | 97 | 251 | 3.0 | 5.0 | 0.00 | 0.05 | 0.00 | 30 | 1011.1 |
| 20260905004145 | 97 | 323 | 3.0 | 9.0 | 0.00 | 0.05 | 0.00 | 30 | 1011.2 |
| 20260905003124 | 98 | 328 | 4.0 | 8.0 | 0.00 | 0.05 | 0.00 | 30 | 1011.2 |
| 20260905002123 | 98 | 289 | 4.0 | 8.0 | 0.00 | 0.05 | 0.00 | 30 | 1011.2 |
| 20260905001123 | 97 | 333 | 5.0 | 9.0 | 0.00 | 0.05 | 0.00 | 31 | 1011.3 |
| 20260905000123 | 97 | 336 | 6.0 | 10.0 | 0.00 | 0.05 | 0.00 | 31 | 1011.4 |
| 20260904235123 | 97 | 330 | 4.0 | 8.0 | 0.00 | 0.05 | 0.00 | 31 | 1011.2 |
| 20260904234145 | 98 | 343 | 9.0 | 14.0 | 0.00 | 0.05 | 0.00 | 30 | 1011.4 |
| 20260904233123 | 99 | 353 | 6.0 | 12.0 | 0.00 | 0.05 | 0.00 | 30 | 1011.3 |
| 20260904232123 | 98 | 14 | 4.0 | 11.0 | 0.00 | 0.05 | 0.00 | 31 | 1011.4 |
| 20260904231123 | 99 | 358 | 7.0 | 11.0 | 0.00 | 0.05 | 0.00 | 30 | 1011.4 |
| 20260904230123 | 98 | 350 | 3.0 | 6.0 | 0.00 | 0.05 | 0.00 | 31 | 1011.5 |
| 20260904225123 | 98 | 318 | 7.0 | 12.0 | 0.00 | 0.05 | 0.00 | 31 | 1011.7 |
| 20260904224144 | 98 | 321 | 5.0 | 9.0 | 0.00 | 0.05 | 0.00 | 30 | 1011.8 |
| 20260904223123 | 99 | 331 | 8.0 | 13.0 | 0.00 | 0.05 | 0.00 | 30 | 1011.9 |
| 20260904222144 | 98 | 359 | 6.0 | 10.0 | 0.00 | 0.05 | 0.00 | 31 | 1011.9 |
| 20260904221124 | 98 | 336 | 8.0 | 13.0 | 0.00 | 0.05 | 0.00 | 31 | 1012.1 |
| 20260904220123 | 98 | 341 | 5.0 | 9.0 | 0.00 | 0.05 | 0.00 | 30 | 1012.2 |
| 20260904215123 | 100 | 355 | 8.0 | 16.0 | 0.00 | 0.05 | 0.00 | 29 | 1012.2 |
| 20260904214123 | 98 | 37 | 5.0 | 11.0 | 0.00 | 0.05 | 0.00 | 31 | 1012.4 |
| 20260904213124 | 99 | 19 | 6.0 | 11.0 | 0.00 | 0.05 | 0.00 | 30 | 1012.5 |
| 20260904212123 | 98 | 345 | 4.0 | 11.0 | 0.00 | 0.05 | 0.00 | 32 | 1012.6 |
| 20260904211123 | 98 | 359 | 8.0 | 13.0 | 0.00 | 0.05 | 0.00 | 31 | 1012.7 |
| 20260904210123 | 97 | 356 | 5.0 | 11.0 | 0.00 | 0.05 | 0.00 | 35 | 1012.8 |
| 20260904205123 | 97 | 356 | 7.0 | 13.0 | 0.00 | 0.05 | 0.00 | 35 | 1012.9 |
| 20260904204144 | 97 | 50 | 2.0 | 6.0 | 0.00 | 0.05 | 0.00 | 35 | 1013.0 |
| 20260904203144 | 96 | 305 | 5.0 | 13.0 | 0.00 | 0.05 | 0.00 | 37 | 1013.2 |
| 20260904202124 | 97 | 329 | 7.0 | 15.0 | 0.00 | 0.05 | 0.00 | 36 | 1013.3 |
| 20260904201124 | 96 | 331 | 6.0 | 11.0 | 0.00 | 0.05 | 0.00 | 36 | 1013.5 |
| 20260904200123 | 96 | 346 | 9.0 | 13.0 | 0.00 | 0.05 | 0.00 | 35 | 1013.7 |
| 20260904195123 | 95 | 336 | 4.0 | 9.0 | 0.00 | 0.05 | 0.00 | 37 | 1013.7 |
| 20260904194123 | 95 | 4 | 3.0 | 12.0 | 0.00 | 0.05 | 0.00 | 38 | 1014.0 |
| 20260904193144 | 96 | 354 | 9.0 | 14.0 | 0.00 | 0.05 | 0.00 | 36 | 1014.0 |
| 20260904192123 | 94 | 359 | 6.0 | 8.0 | 0.00 | 0.05 | 0.00 | 41 | 1014.2 |
| 20260904191124 | 94 | 358 | 7.0 | 14.0 | 0.00 | 0.05 | 0.00 | 41 | 1014.4 |
| 20260904190144 | 94 | 7 | 7.0 | 12.0 | 0.00 | 0.05 | 0.00 | 41 | 1014.6 |
| 20260904185123 | 93 | 2 | 6.0 | 10.0 | 0.00 | 0.05 | 0.00 | 43 | 1014.7 |
| 20260904184123 | 94 | 357 | 9.0 | 18.0 | 0.00 | 0.05 | 0.00 | 42 | 1014.9 |
| 20260904183124 | 94 | 5 | 8.0 | 16.0 | 0.00 | 0.05 | 0.00 | 41 | 1015.0 |
| 20260904182123 | 93 | 347 | 9.0 | 15.0 | 0.00 | 0.05 | 0.00 | 42 | 1015.1 |
| 20260904181123 | 93 | 355 | 7.0 | 14.0 | 0.00 | 0.05 | 0.00 | 43 | 1015.1 |
| 20260904180123 | 92 | 347 | 8.0 | 13.0 | 0.00 | 0.05 | 0.00 | 42 | 1015.3 |
| 20260904175123 | 93 | 355 | 7.0 | 14.0 | 0.00 | 0.05 | 0.00 | 43 | 1015.2 |
| 20260904174123 | 92 | 359 | 9.0 | 15.0 | 0.00 | 0.05 | 0.00 | 47 | 1015.2 |
| 20260904173123 | 91 | 360 | 9.0 | 15.0 | 0.00 | 0.05 | 0.00 | 47 | 1015.3 |